Location: Suzhou
(31.3110°N, 120.6180°E)
Time: 12:54:53
(UTC+08:00)

FO-29 - Pass Details

Date: 25 April 2026
Orbit: 800 x 1320 km, 98.5° (Epoch: 15 May)

Event Time Altitude Azimuth Distance (km) Brightness Sun altitude
Rises 21:05:32 0° 359° (N) 4,062 13.3 -29.6°
Reaches altitude 10° 21:08:41 10° 348° (NNW) 3,016 12.7 -30.1°
Maximum altitude 21:14:08 27° 295° (WNW) 1,904 11.5 -30.9°
Drops below altitude 10° 21:19:07 10° 240° (WSW) 2,710 12.0 -31.7°
Sets 21:21:48 0° 228° (SW) 3,577 12.5 -32.1°
